This demonstration page uses our WeatherBlox Daily Observations layout. Learn more.

Left ArrowRight Arrow

41.86663, -103.66717

Hourly Observations for January 10, 2016

Temp ( °F °C ) Dew Point ( °F °C ) Humidity (%) Winds ( mph kmh ) Pressure ( in mb ) Visibility ( mi km ) Precip ( " mm )
12:53 am 00:53 Cloudy with Mist and Fog 14 -10 11 -11.7 88 88 W 5 7 30.19 1023 5 8 N/A
1:53 am 01:53 Cloudy with Mist and Fog 14 -10 11 -11.7 88 88 WNW 3 6 30.20 1023 5 8 N/A
2:53 am 02:53 Cloudy with Mist and Fog 14 -10 10 -12.2 84 84 WNW 5 7 30.20 1023 5 8 N/A
3:53 am 03:53 Mostly Cloudy with Mist and Fog 11 -11.7 9 -12.8 92 92 WNW 6 9 30.22 1023 4 6 N/A
4:53 am 04:53 Mostly Cloudy with Mist and Fog 8 -13.3 5 -15 87 87 NW 9 15 30.22 1024 6 10 N/A
5:53 am 05:53 Clear with Mist and Fog 7 -13.9 5 -15 91 91 NNW 7 11 30.24 1024 5 8 N/A
6:53 am 06:53 Clear with Mist and Fog 9 -12.8 6 -14.4 88 88 NW 9 15 30.23 1024 6 10 N/A
7:53 am 07:53 Sunny with Mist and Fog 7 -13.9 4 -15.6 87 87 NW 7 11 30.26 1025 4 6 N/A
8:53 am 08:53 Hazy 12 -11.1 7 -13.9 80 80 NNW 8 13 30.24 1024 6 10 N/A
9:53 am 09:53 Sunny 17 -8.3 10 -12.2 74 74 NW 8 13 30.23 1024 10 16 N/A
10:53 am 10:53 Sunny 19 -7.2 11 -11.7 71 71 NW 9 15 30.23 1024 10 16 N/A
11:53 am 11:53 Sunny 26 -3.3 14 -10 60 60 WNW 15 24 30.16 1021 10 16 N/A
12:53 pm 12:53 Sunny 29 -1.7 15 -9.4 56 56 N N/A 30.12 1020 10 16 N/A
1:53 pm 13:53 Sunny 32 undefined 17 -8.3 54 54 WNW 10 17 30.10 1019 10 16 N/A
2:53 pm 14:53 Sunny 33 0.6 17 -8.3 52 52 WNW 12 19 30.09 1019 10 16 N/A
3:53 pm 15:53 Sunny 31 -0.6 16 -8.9 54 54 W 9 15 30.12 1020 10 16 N/A
4:53 pm 16:53 Clear 27 -2.8 15 -9.4 61 61 W 10 17 30.15 1021 10 16 N/A
5:53 pm 17:53 Clear 25 -3.9 14 -10 63 63 WNW 12 19 30.16 1022 10 16 N/A
6:53 pm 18:53 Clear 23 -5 13 -10.6 65 65 WNW 12 19 30.16 1022 10 16 N/A
7:53 pm 19:53 Mostly Clear 21 -6.1 12 -11.1 68 68 WNW 12 19 30.16 1021 10 16 N/A
8:53 pm 20:53 Clear 16 -8.9 9 -12.8 74 74 NW 8 13 30.16 1021 10 16 N/A
9:53 pm 21:53 Mostly Clear 16 -8.9 9 -12.8 74 74 NW 9 15 30.16 1021 10 16 N/A
10:53 pm 22:53 Cloudy 18 -7.8 11 -11.7 74 74 WNW 6 9 30.15 1021 10 16 N/A
11:53 pm 23:53 Cloudy 21 -6.1 12 -11.1 68 68 WNW 9 15 30.10 1019 10 16 N/A

Powered by AerisWeather